Content
SEND FEEDBACK

Daily
Averages
Monthly
Summary
United Kingdom

ASKHAM, ENGLAND


Home > Europe > United Kingdom > England
Elevation: 85 feet     Latitude: 53 55N     Longitude: 001 10W

WEATHER
 
SELECT A DAY
Number of Records: 48,838;   Date Range: 6/27/01 - 12/19/13
 
SHARE

PRINT THIS DATA

[ ← Previous Day ]
WEATHER ALMANAC - SEPTEMBER 25, 2013
[ Next Day → ]
[ °C ]   °F
Weather ElementAverageHighLow
Temperature58.7 °F63 °F (3:50 pm)53.6 °F (11:50 pm)
Dewpoint54.2 °F57.2 °F (10:50 am)46.4 °F (11:50 pm)
Humidity84.4 %100 % (4:50 am)67 % (3:50 pm)
Barometer29.89 in29.98 in (9:50 pm)29.86 in (5:50 am)
Wind Speed5.9 mph13.8 mph (7:50 pm)
Weather ElementAverage
Visibility4.9 mi
Wind DirectionSW (229.7 °)

Weather ElementTotal
Precipitation---
Heating Degree Days6.7 (Base 65)
Growing Degree Days8.3 (Base 50)
Averaged from 32 records on September 25, 2013
WEATHER CONDITIONS BREAKOUT
WIND DIRECTION BREAKOUT
WEATHER BY HOUR - SEPTEMBER 25, 2013
[ °C ]   °F
Local TimeTemperatureDewpointHumidityBarometerVisibilityWind DirectionWind SpeedGust SpeedPrecipitationEventsConditions
12:50 AM57.2 °F55.4 °F94 %29.92 in2.8 miENE (70°)4.6 mphHaze
1:50 AM57.2 °F55.4 °F94 %29.92 inNNW (330°)2.3 mphMostly Cloudy
2:50 AM57.2 °F55.4 °F94 %29.89 inNNW (340°)2.3 mphOvercast
3:50 AM57.2 °F55.4 °F94 %29.89 inNE (50°)5.8 mphMostly Cloudy
4:50 AM55.4 °F55.4 °F100 %29.89 in1.9 miWNW (300°)2.3 mphMostly Cloudy
5:50 AM55.4 °F55.4 °F100 %29.86 inNW (310°)2.3 mphScattered Clouds
6:50 AM56.0 °F55.0 °F96 %29.88 in2.0 miWest (260°)1.2 mphMist
6:50 AM57.2 °F55.4 °F94 %29.86 inWest (260°)1.2 mphOvercast
7:50 AM57.2 °F55.4 °F94 %29.86 in2.2 miWest (260°)2.3 mphOvercast
8:50 AM57.2 °F55.4 °F94 %29.86 in2.2 miNNE (20°)2.3 mphMostly Cloudy
9:50 AM58.0 °F56.0 °F91 %29.88 in2.0 miNNW (340°)4.6 mphMist
9:50 AM59.0 °F55.4 °F88 %29.86 in2.2 miNNW (340°)4.6 mphOvercast
10:29 AM59.0 °F55.4 °F88 %29.86 in2.2 miNorth (360°)3.5 mphHaze
10:50 AM60.8 °F57.2 °F88 %29.86 in2.5 miNW (320°)4.6 mphHaze
11:50 AM60.8 °F57.2 °F88 %29.86 in2.8 miNW (320°)2.3 mphHaze
12:50 PM62.6 °F57.2 °F82 %29.86 in3.1 miWNW (290°)2.3 mphHaze
12:50 PM62.0 °F57.0 °F79 %29.88 in3.0 miWNW (290°)2.3 mphHaze
1:33 PM62.6 °F55.4 °F77 %29.86 in3.7 miNorth (360°)6.9 mphHaze
1:50 PM62.6 °F55.4 °F77 %29.86 in3.7 miNNW (340°)6.9 mphHaze
2:50 PM62.6 °F53.6 °F72 %29.86 in5.0 miNorth (350°)9.2 mphHaze
3:50 PM63.0 °F55.0 °F67 %29.88 in6.0 miNNW (340°)8.1 mphHaze
3:50 PM62.6 °F55.4 °F77 %29.86 in5.6 miNNW (340°)8.1 mphHaze
4:50 PM62.6 °F55.4 °F77 %29.86 in6.2 miNNW (340°)10.4 mphMostly Cloudy
5:50 PM60.8 °F53.6 °F77 %29.89 in6.2 miNorth (10°)8.1 mphMostly Cloudy
6:50 PM60.8 °F53.6 °F77 %29.89 in6.2 miNorth (350°)8.1 mphMostly Cloudy
6:50 PM60.0 °F54.0 °F76 %29.91 in7.0 miNorth (350°)8.1 mphScattered Clouds
7:50 PM57.2 °F51.8 °F82 %29.92 in6.2 miNNE (20°)13.8 mphMostly Cloudy
8:50 PM55.4 °F50.0 °F82 %29.95 in6.2 miNorth (10°)11.5 mphMostly Cloudy
9:50 PM55.0 °F48.0 °F71 %29.98 in22.0 miNorth (10°)9.2 mphRainRain
9:50 PM55.4 °F48.2 °F77 %29.98 in6.2 miNorth (10°)9.2 mphMostly Cloudy
10:50 PM55.4 °F48.2 °F77 %29.98 in6.2 miNNE (30°)9.2 mphOvercast
11:50 PM53.6 °F46.4 °F77 %29.98 in6.2 miNNE (30°)10.4 mphOvercast
Hourly data recorded from EGXG, located miles away from Askham, England







STORIES FROM OUR PARTNERS